Terug naar catalogus

STARLINK-34783

ActiefCommunicatieVLEO
NORAD 66337·PAYLOAD·🇺🇸 United States

Gelanceerd Nov 6, 2025 vanaf Cape Canaveral Space Force Station

Loading…

Volgende Passages (komende 24 uur)

TLE

VersSource: CelesTrak SupGP

Epoch: Sep 15, 2026, 03:13 UTC

1 66337C 25253U   26258.13451389 -.00041708  00000+0 -15109-2 0  2586
2 66337  42.9998 223.0522 0001130 269.3108  54.9025 15.27594653    11

Volg STARLINK-34783 in realtime met AllMySat

Download on the App Store